Hourly Weather Holoskovychi

Today, 12 April, Monday

Time Temperature Precipitation Wind Pressure Humidity
00:00 +7°C° 0 mm 5 mps 746 mmHg 56%
01:00 +6°C° 0 mm 4 mps 746 mmHg 57%
02:00 +6°C° 0 mm 4 mps 745 mmHg 57%
03:00 +6°C° 0 mm 4 mps 745 mmHg 58%
04:00 +6°C° 0 mm 4 mps 745 mmHg 58%
05:00 +5°C° 0 mm 4 mps 745 mmHg 58%
06:00 +6°C° 0 mm 4 mps 745 mmHg 58%
07:00 +7°C° 0 mm 4 mps 745 mmHg 58%
08:00 +8°C° 0 mm 4 mps 745 mmHg 58%
09:00 +10°C° 0 mm 4 mps 744 mmHg 55%
10:00 +12°C° 0 mm 4 mps 744 mmHg 53%
11:00 +14°C° 0 mm 4 mps 744 mmHg 50%
12:00 +15°C° 0 mm 4 mps 744 mmHg 48%
13:00 +17°C° 0 mm 4 mps 744 mmHg 47%
14:00 +18°C° 0 mm 3 mps 743 mmHg 45%
15:00 +18°C° 0 mm 3 mps 743 mmHg 47%
16:00 +18°C° 0 mm 3 mps 743 mmHg 48%
17:00 +18°C° 0 mm 3 mps 742 mmHg 50%
18:00 +16°C° 0 mm 3 mps 743 mmHg 54%
19:00 +14°C° 0 mm 3 mps 743 mmHg 58%
20:00 +13°C° 0 mm 3 mps 743 mmHg 62%
21:00 +12°C° 0 mm 3 mps 743 mmHg 63%
22:00 +13°C° 0 mm 2 mps 743 mmHg 63%
23:00 +13°C° 0 mm 2 mps 743 mmHg 64%

Tomorrow, 13 April, Tuesday

Time Temperature Precipitation Wind Pressure Humidity
00:00 +12°C° 0 mm 2 mps 743 mmHg 63%
01:00 +12°C° 0 mm 2 mps 742 mmHg 63%
02:00 +12°C° 0 mm 1 mps 742 mmHg 63%
03:00 +12°C° 0 mm 1 mps 742 mmHg 63%
04:00 +12°C° 0 mm 1 mps 742 mmHg 63%
05:00 +11°C° 0 mm 1 mps 742 mmHg 64%
06:00 +12°C° 0 mm 1 mps 742 mmHg 65%
07:00 +12°C° 0 mm 1 mps 742 mmHg 66%
08:00 +12°C° 0 mm 1 mps 742 mmHg 67%
09:00 +13°C° 0 mm 1 mps 742 mmHg 64%
10:00 +14°C° 0 mm 2 mps 742 mmHg 61%
11:00 +14°C° 0 mm 2 mps 742 mmHg 58%
12:00 +15°C° 0 mm 2 mps 742 mmHg 57%
13:00 +15°C° 0 mm 2 mps 742 mmHg 56%
14:00 +16°C° 0 mm 2 mps 742 mmHg 55%
15:00 +14°C° 0 mm 3 mps 741 mmHg 61%
16:00 +13°C° 0 mm 4 mps 741 mmHg 66%
17:00 +13°C° 0 mm 4 mps 741 mmHg 72%
18:00 +10°C° 0 mm 5 mps 741 mmHg 76%
19:00 +9°C° 0 mm 5 mps 741 mmHg 81%
20:00 +7°C° 0 mm 5 mps 741 mmHg 86%
21:00 +7°C° 0 mm 5 mps 741 mmHg 87%
22:00 +6°C° 0 mm 5 mps 741 mmHg 87%
23:00 +6°C° 0 mm 5 mps 741 mmHg 88%

Day after tomorrow, 14 April, Wednesday

Time Temperature Precipitation Wind Pressure Humidity
00:00 +6°C° 0 mm 4 mps 741 mmHg 89%
01:00 +5°C° 0 mm 4 mps 740 mmHg 89%
02:00 +5°C° 0 mm 4 mps 740 mmHg 90%
03:00 +5°C° 0 mm 4 mps 740 mmHg 90%
04:00 +4°C° 0 mm 4 mps 740 mmHg 91%
05:00 +4°C° 0 mm 4 mps 740 mmHg 91%
06:00 +4°C° 0 mm 4 mps 740 mmHg 91%
07:00 +4°C° 0 mm 4 mps 740 mmHg 91%
08:00 +4°C° 0 mm 4 mps 740 mmHg 91%
09:00 +4°C° 0 mm 4 mps 740 mmHg 91%
10:00 +4°C° 0 mm 4 mps 740 mmHg 90%
11:00 +4°C° 0 mm 4 mps 740 mmHg 90%
12:00 +4°C° 0 mm 4 mps 740 mmHg 89%
13:00 +4°C° 0 mm 4 mps 740 mmHg 89%
14:00 +4°C° 0 mm 4 mps 740 mmHg 88%
15:00 +4°C° 0 mm 4 mps 740 mmHg 89%
16:00 +3°C° 0 mm 4 mps 740 mmHg 90%
17:00 +3°C° 0 mm 4 mps 740 mmHg 90%
18:00 +1°C° 0 mm 4 mps 740 mmHg 92%
19:00 +1°C° 0 mm 4 mps 740 mmHg 93%
20:00 +1°C° 0 mm 4 mps 741 mmHg 95%
21:00 +1°C° 0.1 mm 4 mps 740 mmHg 95%
22:00 +2°C° 0.1 mm 3 mps 740 mmHg 96%
23:00 +2°C° 0.1 mm 3 mps 740 mmHg 96%

15 April, Thursday

Time Temperature Precipitation Wind Pressure Humidity
00:00 +2°C° 0 mm 3 mps 740 mmHg 96%
01:00 +2°C° 0 mm 3 mps 740 mmHg 97%
02:00 +2°C° 0 mm 3 mps 740 mmHg 97%
03:00 +2°C° 0.1 mm 3 mps 740 mmHg 97%
04:00 +1°C° 0.1 mm 3 mps 740 mmHg 97%
05:00 +1°C° 0.1 mm 3 mps 740 mmHg 97%
06:00 +1°C° 0.2 mm 3 mps 740 mmHg 97%
07:00 +2°C° 0.2 mm 3 mps 740 mmHg 97%
08:00 +2°C° 0.2 mm 3 mps 740 mmHg 98%
09:00 +2°C° 0.3 mm 3 mps 740 mmHg 97%
10:00 +2°C° 0.3 mm 3 mps 740 mmHg 97%
11:00 +2°C° 0.3 mm 3 mps 740 mmHg 97%
12:00 +2°C° 0.3 mm 3 mps 740 mmHg 97%
13:00 +2°C° 0.3 mm 3 mps 740 mmHg 97%
14:00 +2°C° 0.3 mm 3 mps 740 mmHg 97%
15:00 +1°C° 0.7 mm 4 mps 740 mmHg 97%
16:00 +1°C° 0.7 mm 4 mps 740 mmHg 97%
17:00 +1°C° 0.7 mm 4 mps 740 mmHg 97%
18:00 0°C° 1.2 mm 4 mps 740 mmHg 97%
19:00 0°C° 1.2 mm 4 mps 740 mmHg 98%
20:00 0°C° 1.2 mm 4 mps 740 mmHg 98%
21:00 0°C° 1.3 mm 4 mps 740 mmHg 98%
22:00 0°C° 1.3 mm 5 mps 739 mmHg 98%
23:00 0°C° 1.3 mm 5 mps 739 mmHg 98%

16 April, Friday

Time Temperature Precipitation Wind Pressure Humidity
00:00 0°C° 0.6 mm 5 mps 739 mmHg 98%
01:00 0°C° 0.6 mm 5 mps 739 mmHg 98%
02:00 0°C° 0.6 mm 5 mps 738 mmHg 98%
03:00 0°C° 0.7 mm 5 mps 738 mmHg 98%
04:00 0°C° 0.7 mm 5 mps 738 mmHg 98%
05:00 0°C° 0.7 mm 5 mps 738 mmHg 98%
06:00 0°C° 0.3 mm 4 mps 738 mmHg 98%
07:00 0°C° 0.3 mm 4 mps 738 mmHg 98%
08:00 0°C° 0.3 mm 4 mps 738 mmHg 98%
09:00 0°C° 0.3 mm 4 mps 738 mmHg 98%
10:00 0°C° 0.3 mm 4 mps 738 mmHg 98%
11:00 0°C° 0.3 mm 4 mps 738 mmHg 98%
12:00 0°C° 0.9 mm 4 mps 738 mmHg 98%
13:00 +1°C° 0.9 mm 4 mps 738 mmHg 98%
14:00 +1°C° 0.9 mm 5 mps 738 mmHg 98%
15:00 +1°C° 1.2 mm 5 mps 738 mmHg 98%
16:00 +1°C° 1.2 mm 5 mps 738 mmHg 98%
17:00 +1°C° 1.2 mm 5 mps 738 mmHg 98%
18:00 +1°C° 3.4 mm 5 mps 738 mmHg 98%
19:00 +1°C° 3.4 mm 5 mps 738 mmHg 98%
20:00 +1°C° 3.4 mm 5 mps 738 mmHg 98%
21:00 +3°C° 0.4 mm 4 mps 738 mmHg 98%
22:00 +3°C° 0.4 mm 3 mps 738 mmHg 98%
23:00 +4°C° 0.4 mm 2 mps 738 mmHg 99%

17 April, Saturday

Time Temperature Precipitation Wind Pressure Humidity
00:00 +5°C° 0.2 mm 2 mps 739 mmHg 99%
01:00 +5°C° 0.2 mm 2 mps 739 mmHg 99%
02:00 +5°C° 0.2 mm 2 mps 739 mmHg 99%
03:00 +5°C° 0 mm 2 mps 739 mmHg 99%
04:00 +4°C° 0 mm 2 mps 740 mmHg 98%
05:00 +4°C° 0 mm 2 mps 740 mmHg 98%
06:00 +4°C° 0.1 mm 2 mps 740 mmHg 97%
07:00 +4°C° 0.1 mm 2 mps 741 mmHg 95%
08:00 +4°C° 0.1 mm 2 mps 741 mmHg 93%
09:00 +4°C° 0 mm 3 mps 742 mmHg 88%
10:00 +5°C° 0 mm 3 mps 742 mmHg 84%
11:00 +6°C° 0 mm 4 mps 742 mmHg 79%
12:00 +7°C° 0.1 mm 3 mps 743 mmHg 77%
13:00 +7°C° 0.1 mm 3 mps 743 mmHg 75%
14:00 +8°C° 0.1 mm 3 mps 743 mmHg 73%
15:00 +7°C° 0.1 mm 3 mps 743 mmHg 75%
16:00 +7°C° 0.1 mm 2 mps 743 mmHg 78%
17:00 +7°C° 0.1 mm 2 mps 744 mmHg 80%
18:00 +6°C° 0 mm 2 mps 744 mmHg 84%
19:00 +5°C° 0 mm 2 mps 744 mmHg 87%
20:00 +3°C° 0 mm 3 mps 744 mmHg 91%
21:00 +4°C° 0 mm 2 mps 745 mmHg 92%
22:00 +4°C° 0 mm 2 mps 745 mmHg 93%
23:00 +4°C° 0 mm 2 mps 745 mmHg 94%
Show more